Skip Page Navigation
NASA JPL Caltech
NASA Logo - Jet Propulsion Laboratory + View the NASA Portal
+ Center for Near-Earth Object Studies
JPL Home Earth Solar System Stars & Galaxies Technology
JPL Solar System Dynamics
BODIES ORBITS EPHEMERIDES TOOLS PHYSICAL DATA DISCOVERY FAQ SITE MAP
IMPORTANT: The SSD Announcement email list is now available. Major changes are coming in the near future, including possible hostname and/or URL changes. To be notified of such changes, subscribe to this email list.

Please visit this page for more details.


JPL Small-Body Database Browser
Search: [ help ]  
410 Chloris (A896 AC)
Classification: Main-belt Asteroid          SPK-ID: 2000410
Ephemeris | Orbit Diagram | Orbital Elements | Mission Design | Physical Parameters | Discovery Circumstances | Close-Approach Data ]

[ show orbit diagram ]
Orbital Elements at Epoch 2458600.5 (2019-Apr-27.0) TDB
Reference: JPL 49 (heliocentric ecliptic J2000)
 Element Value Uncertainty (1-sigma)   Units 
e .2423869365382866 3.9166e-08  
a 2.724259912538743 7.6732e-09 au
q 2.063934898004416 1.0789e-07 au
i 10.96656880170252 4.2977e-06 deg
node 96.93169820461702 1.9868e-05 deg
peri 172.8561220182525 2.1058e-05 deg
M 345.2095143029462 9.0308e-06 deg
tp 2458667.976286198791
(2019-Jul-03.47628620)
4.1383e-05 TDB
period 1642.370881464949
4.50
6.9389e-06
1.9e-08
d
yr
n .2191953133502282 9.2609e-10 deg/d
Q 3.38458492707307 9.5331e-09 au
  Orbit Determination Parameters
   # obs. used (total)      2492  
   data-arc span      41502 days (113.63 yr)  
   first obs. used      1906-04-13  
   last obs. used      2019-11-28  
   planetary ephem.      DE431  
   SB-pert. ephem.      SB431-N16  
   condition code      0  
   norm. resid. RMS      .43678  
   source      ORB  
   producer      Otto Matic  
   solution date      2019-Dec-03 20:06:59  

Additional Information
 Earth MOID = 1.04775 au 
 Jupiter MOID = 1.73908 au 
 T_jup = 3.288 
[ show covariance matrix ]

Ephemeris | Orbit Diagram | Orbital Elements | Mission Design | Physical Parameters | Discovery Circumstances | Close-Approach Data ]

Physical Parameter Table
Parameter Symbol Value Units Sigma Reference Notes
absolute magnitude H 8.30   n/a IRAS-A-FPA-3-RDR-IMPS-V6.0 IRAS observations used: 55
diameter diameter 118.929 km 2.856 urn:nasa:pds:neowise_diameters_albedos::2.0[mainbelt] (http://adsabs.harvard.edu/abs/2011ApJ...741...68M)  
rotation period rot_per 32.50 h n/a LCDB (Rev. 2019-January); Warner et al., 2009 Published Reference List:
[Harris, A.W.; Young, J.W. (1983) Icarus 54, 59-109.]
[Piironen, J.; Magnusson, P.; Lagerkvist, C.-I.; Williams, I.P.; et al. (1997) Astron. Astrophys. Suppl. Ser. 121, 489-497.]
[Behrend, R. (2005) Observatoire de Geneve web site, http://obswww.unige.ch/~behrend/page_cou.html]
[Behrend, R. (2014) Observatoire de Geneve web site, http://obswww.unige.ch/~behrend/page_cou.html]
geometric albedo albedo 0.043   0.007 urn:nasa:pds:neowise_diameters_albedos::2.0[mainbelt] (http://adsabs.harvard.edu/abs/2011ApJ...741...68M)  
B-V BV 0.748   0.010 EAR-A-5-DDR-UBV-MEAN-VALUES-V1.2 #obs=4; phase (min.=4.91, mean=9.49, max.=14.50) deg.
U-B UB 0.394   0.020 EAR-A-5-DDR-UBV-MEAN-VALUES-V1.2 #obs=4; phase (min.=4.91, mean=9.49, max.=14.50) deg.
Tholen spectral type spec_T C   n/a EAR-A-5-DDR-TAXONOMY-V4.0 used 7 color indices; used ground-based radiometric albedo
SMASSII spectral type spec_B Ch   n/a EAR-A-5-DDR-TAXONOMY-V4.0 based on a high-resolution spectrum by Xu et al. (1995) or Bus and Binzel (2002)

410 Chloris (A896 AC)          Discovered 1896-Jan-07 by Charlois, A. at Nice
Reference: DISCOVERY.DBLast Updated: 2003-08-29

[ show close-approach data ]
Alternate Designations
 A896 AC = A902 UK = A906 GB 
Ephemeris | Orbit Diagram | Orbital Elements | Mission Design | Physical Parameters | Discovery Circumstances | Close-Approach Data ]
ABOUT SSD CREDITS/AWARDS PRIVACY/COPYRIGHT GLOSSARY LINKS
FirstGov 2019-Dec-16 08:35 UT
(server date/time)  
NASA Home Page
Site Manager:   Ryan S. Park
Webmaster  Alan B. Chamberlin